This demonstration page uses our WeatherBlox Daily Observations layout. Learn more.

Left ArrowRight Arrow

34.74481, -87.66753

Hourly Observations for January 4, 2020

Temp ( °F °C ) Dew Point ( °F °C ) Humidity (%) Winds ( mph kmh ) Pressure ( in mb ) Visibility ( mi km ) Precip ( " mm )
12:16 am 00:16 Cloudy 58 14.4 54 12.2 87 87 SW 8 13 29.88 1012 10 16 0.00 0.00
12:37 am 00:37 Cloudy with Heavy Rain 58 14.4 55 12.8 90 90 WNW 10 17 29.88 1012 3 5 0.07 1.78
12:40 am 00:40 Cloudy with Heavy Rain 57 13.9 55 12.8 93 93 NW 8 13 29.88 1012 3 4 0.09 2.29
12:43 am 00:43 Cloudy with Heavy Rain 57 13.9 55 12.8 93 93 WNW 7 11 29.88 1012 3 4 0.10 2.54
12:53 am 00:53 Cloudy with Heavy Rain 57 13.9 54 12.2 90 90 WNW 6 9 29.87 1012 3 5 0.14 3.56
1:40 am 01:40 Cloudy with Light Rain 56 13.3 53 11.7 90 90 WNW 9 15 29.89 1012 10 16 0.03 0.76
1:53 am 01:53 Cloudy 55 12.8 52 11.1 90 90 WNW 12 19 29.89 1012 10 16 0.03 0.76
2:14 am 02:14 Cloudy 55 12.8 52 11.1 90 90 WNW 12 19 29.91 1013 10 16 0.00 0.00
2:24 am 02:24 Cloudy with Light Rain 55 12.8 52 11.1 90 90 NW 9 15 29.91 1013 10 16 0.00 0.00
2:53 am 02:53 Cloudy 54 12.2 50 10 87 87 NW 12 19 29.91 1013 10 16 0.00 0.00
3:00 am 03:00 Cloudy 54 12.2 50 10 87 87 NW 22 35 29.93 1014 10 16 0.00 0.00
3:08 am 03:08 Cloudy 52 11.1 48 8.9 86 86 NW 16 26 29.94 1014 10 16 0.00 0.00
3:48 am 03:48 Cloudy 50 10 45 7 82 82 NW 12 19 29.95 1014 10 16 0.00 0.00
3:53 am 03:53 Cloudy 50 10 45 7.2 83 83 NW 13 20 29.94 1014 10 16 0.00 0.00
4:05 am 04:05 Cloudy 50 10 44 6.7 80 80 NW 15 24 29.97 1015 10 16 0.00 0.00
4:53 am 04:53 Cloudy 48 8.9 42 5.6 80 80 NNW 15 24 29.97 1015 10 16 0.00 0.00
5:18 am 05:18 Partly Cloudy 47 8.3 40 4.4 77 77 NW 14 22 30.00 1016 10 16 0.00 0.00
5:53 am 05:53 Clear 46 7.8 39 3.9 77 77 NW 9 15 30.00 1016 10 16 0.00 0.00
6:53 am 06:53 Clear 43 6.1 38 3.3 82 82 WNW 7 11 30.02 1017 10 16 0.00 0.00
7:53 am 07:53 Mostly Cloudy 45 7.2 39 3.9 80 80 NW 9 15 30.05 1018 10 16 0.00 0.00
8:18 am 08:18 Partly Cloudy 46 7.8 39 3.9 77 77 WNW 9 15 30.07 1018 10 16 0.00 0.00
8:27 am 08:27 Mostly Cloudy 46 7.8 40 4.4 79 79 WNW 9 15 30.07 1018 10 16 0.00 0.00
8:53 am 08:53 Cloudy 45 7.2 38 3.3 77 77 NW 10 17 30.07 1018 10 16 0.00 0.00
9:08 am 09:08 Partly Cloudy 45 7.2 38 3.3 77 77 WNW 12 19 30.09 1019 10 16 0.00 0.00
9:46 am 09:46 Mostly Cloudy 46 7.8 38 3.3 73 73 NW 17 28 30.11 1020 10 16 0.00 0.00
9:53 am 09:53 Mostly Cloudy 46 7.8 37 2.8 71 71 WNW 16 26 30.10 1019 10 16 0.00 0.00
10:46 am 10:46 Mostly Cloudy 46 7.8 35 1.7 66 66 WNW 14 22 30.12 1020 10 16 0.00 0.00
10:53 am 10:53 Partly Cloudy 47 8.3 35 1.7 63 63 WNW 18 30 30.10 1019 10 16 0.00 0.00
11:53 am 11:53 Mostly Cloudy 49 9.4 32 0 52 52 W 22 35 30.09 1019 10 16 0.00 0.00
12:53 pm 12:53 Cloudy 45 7.2 29 -1.7 54 54 WNW 22 35 30.12 1020 10 16 0.00 0.00
1:53 pm 13:53 Cloudy 45 7.2 29 -1.7 54 54 NW 16 26 30.14 1021 10 16 0.00 0.00
2:53 pm 14:53 Mostly Cloudy 45 7.2 27 -2.8 49 49 WNW 20 31 30.16 1022 10 16 0.00 0.00
3:53 pm 15:53 Mostly Sunny 42 5.6 26 -3.3 53 53 NW 20 31 30.21 1023 10 16 0.00 0.00
4:53 pm 16:53 Mostly Clear 41 5 27 -2.8 57 57 NW 9 15 30.24 1024 10 16 0.00 0.00
5:53 pm 17:53 Cloudy 41 5 27 -2.8 57 57 NNW 13 20 30.28 1025 10 16 0.00 0.00
6:53 pm 18:53 Cloudy 41 5 27 -2.8 57 57 NW 9 15 30.30 1026 10 16 0.00 0.00
7:53 pm 19:53 Clear 38 3.3 27 -2.8 65 65 NW 6 9 30.32 1027 10 16 0.00 0.00
8:53 pm 20:53 Clear 36 2.2 27 -2.8 70 70 Calm 30.32 1027 10 16 0.00 0.00
9:53 pm 21:53 Clear 34 1.1 27 -2.8 76 76 SW 3 6 30.32 1027 10 16 0.00 0.00
10:53 pm 22:53 Clear 34 1.1 28 -2.2 79 79 Calm 30.32 1027 10 16 0.00 0.00
11:53 pm 23:53 Clear 32 0 27 -2.8 82 82 Calm 30.32 1027 10 16 0.00 0.00

Powered by AerisWeather